{"data":{"norad_id":60201,"intl_designator":"2024-124U","name":"STARLINK-32020","alt_names":[],"object_type":"PAYLOAD","status":"ACTIVE","operator":null,"country":"US","launch_date":"2024-07-03","launch_site_code":"AFETR","launch_vehicle":null,"mission":null,"orbit_class":"UNKNOWN","rcs_meters":null,"size_class":null,"mass_kg":null,"dimensions":null,"purposes":["comms"],"wikipedia_slug":null,"has_3d_model":false,"image_url":null,"decayed_at":null,"tle_current":{"epoch":"2026-05-25T04:51:31.923648Z","epoch_age_seconds":67674,"freshness":"FRESH","line1":"1 60201U 24124U   26145.20245282 -.00000077  00000+0  95354-5 0  9990","line2":"2 60201  53.1609 326.8488 0000951  96.0332 264.0777 15.30196707106012","mean_motion":15.30196707,"eccentricity":9.51e-5,"inclination_deg":53.1609,"raan_deg":326.8488,"arg_perigee_deg":96.0332,"mean_anomaly_deg":264.0777,"bstar":9.5354e-6,"rev_number":10601,"period_min":94.105548222174,"perigee_km":474.57314702453,"apogee_km":475.87665645825,"semimajor_km":6853.3619017414,"source":"CELESTRAK","updated_at":"2026-05-25T13:38:19.197361Z"}}}